Regional Weather Roundup
Issued by NWS

Home | Current Version | Previous Version | Text Only | Print | Product List | Glossary On
Versions: 1 2 3 4 5 6 7 8 9 10 11 12 13 14 15 16 17 18 19 20 21 22 23 24 25 26 27 28 29 30 31 32 33 34 35 36 37 38 39 40 41 42 43 44 45 46 47 48 49 50
000
ASUS43 KDTX 251210
RWRMI
MICHIGAN HOURLY REGIONAL WEATHER ROUNDUP
NATIONAL WEATHER SERVICE DETROIT/PONTIAC MI
800 AM EDT SAT APR 25 2015

NOTE: "FAIR" INDICATES FEW OR NO CLOUDS BELOW 12,000 FEET WITH NO
SIGNIFICANT WEATHER AND/OR OBSTRUCTION TO VISIBILITY.

MIZ047>049-052>055-059>063-066>070-074>076-081>083-251300-
SOUTHEAST LOWER MICHIGAN

CITY           SKY/WX    TMP DP  RH WIND       PRES   REMARKS
ADRIAN         CLOUDY    41  39  93 E8        29.91R
6HR MIN TEMP:  40; 6HR MAX TEMP:  43; 6HR PCP: TRACE;

ALMA           CLOUDY    37  23  57 E6        29.94S WCI  32
ANN ARBOR      PTSUNNY   40  35  83 E7        29.92R
BAD AXE        SUNNY     34  23  64 E5        29.97S WCI  29
CARO           MOSUNNY   34  24  65 CALM      29.95S
DETROIT CITY   CLOUDY    41  31  67 E8        29.94F
6HR MIN TEMP:  38; 6HR MAX TEMP:  41;

DETROIT        CLOUDY    42  34  73 E7        29.93S
6HR MIN TEMP:  41; 6HR MAX TEMP:  43; 6HR PCP:  0.02;

FLINT          CLOUDY    41  21  44 E6        29.94R
6HR MIN TEMP:  38; 6HR MAX TEMP:  41;

GROSSE ILE     CLOUDY    41  36  81 NE7       29.92S
HILLSDALE      CLOUDY    41  40  95 E6        29.88R
HOWELL         MOSUNNY   39  32  77 E6        29.91S WCI  34

CITY           SKY/WX    TMP DP  RH WIND       PRES   REMARKS
JACKSON        CLOUDY    41  37  86 SE7       29.90R
6HR MIN TEMP:  40; 6HR MAX TEMP:  41; 6HR PCP: TRACE;

LAMBERTVILLE   CLOUDY    43  39  87 E5        29.91R
LANSING        CLOUDY    40  37  89 NE6       29.92R
6HR MIN TEMP:  37; 6HR MAX TEMP:  44; 6HR PCP: TRACE;

LAPEER         FAIR      35  25  65 E3        29.95R
MASON          CLOUDY    40  35  84 E7        29.90F WCI  35
MONROE         CLOUDY    43  37  81 E7        29.90S
MT. CLEMENS    CLOUDY    38  25  60 NE10      29.92S WCI  31
6HR MIN TEMP:  37; 6HR MAX TEMP:  38;

PONTIAC        PTSUNNY   38  23  55 E5        29.92R WCI  34
6HR MIN TEMP:  37; 6HR MAX TEMP:  38;

PORT HOPE        N/A     33  25  72 S3        29.97F
6HR MIN TEMP:  28; 6HR MAX TEMP:  36;

PORT HURON     PTSUNNY   36  28  75 NE9       29.96S WCI  29
TRI CITIES     MOSUNNY   36  24  62 E7        29.96R WCI  30
6HR MIN TEMP:  34; 6HR MAX TEMP:  37;

TROY           CLOUDY    40  26  57 E5        29.95R
SAGINAW HB     MOSUNNY   36  27  69 E5        29.96R WCI  32
$$
MIZ043>046-050>051-056>058-064>065-071>073-077>080-251300-
SOUTHWEST LOWER MICHIGAN

CITY           SKY/WX    TMP DP  RH WIND       PRES   REMARKS
BATTLE CREEK   CLOUDY    41  38  89 E7        29.89R
6HR MIN TEMP:  41; 6HR MAX TEMP:  41; 6HR PCP: TRACE;

BENTON HARBOR  CLOUDY    43  37  79 E14       29.84F
6HR MIN TEMP:  42; 6HR MAX TEMP:  43;

BIG RAPIDS     CLOUDY    37  20  52 E7        29.93R WCI  31
6HR MIN TEMP:  36; 6HR MAX TEMP:  42;

COLDWATER      CLOUDY    42  37  82 SE6       29.88S
6HR MIN TEMP:  40; 6HR MAX TEMP:  42;

FREMONT        CLOUDY    37  22  52 E7        29.91S WCI  32
HOLLAND        CLOUDY    44  38  79 E10       29.89S
6HR MIN TEMP:  44; 6HR MAX TEMP:  44; 6HR PCP:  0.01;

GRAND RAPIDS   CLOUDY    38  31  76 NE12      29.90S WCI  30
6HR MIN TEMP:  38; 6HR MAX TEMP:  43;

IONIA          CLOUDY    37  29  72 NE8       29.91S WCI  31
KALAMAZOO      CLOUDY    43  38  82 E6        29.88R
6HR MIN TEMP:  42; 6HR MAX TEMP:  43; 6HR PCP: TRACE;

LUDINGTON      MOSUNNY   38  24  55 E9        29.92S WCI  32
6HR MIN TEMP:  38; 6HR MAX TEMP:  42;

MARSHALL       CLOUDY    39  38  93 E5        29.89R
MOUNT PLEASANT MOSUNNY   36  24  63 N5        29.95R WCI  32
6HR MIN TEMP:  35; 6HR MAX TEMP:  37;

MUSKEGON       CLOUDY    41  35  79 E7        29.90S
6HR MIN TEMP:  41; 6HR MAX TEMP:  43;

SOUTH HAVEN    CLOUDY    44  38  79 E7        29.86R
$$
MIZ016>042-251300-
NORTHERN LOWER MICHIGAN

CITY           SKY/WX    TMP DP  RH WIND       PRES   REMARKS
ALPENA         SUNNY     30  23  75 CALM      30.01R
6HR MIN TEMP:  20; 6HR MAX TEMP:  30;

BEAVER ISLAND  SUNNY     28  24  85 NE5       30.00F WCI  23
6HR MIN TEMP:  21; 6HR MAX TEMP:  32;

BELLAIRE       SUNNY     34  21  59 N3        29.99S
6HR MIN TEMP:  29; 6HR MAX TEMP:  36;

CADILLAC       MOSUNNY   33  23  65 E6        29.93R WCI  28
CHARLEVOIX     SUNNY     33  25  71 E3        30.02S
6HR MIN TEMP:  28; 6HR MAX TEMP:  35;

FRANKFORT      MOSUNNY   40  20  45 E5        29.95S
GAYLORD        SUNNY     31  20  63 CALM      29.96R
6HR MIN TEMP:  27; 6HR MAX TEMP:  31;

GRAYLING       SUNNY     31  22  67 CALM      29.97S
6HR MIN TEMP:  26; 6HR MAX TEMP:  33;

HARBOR SPRINGS SUNNY     28  20  75 CALM      30.00R
HOUGHTON LAKE  PTSUNNY   33  22  63 E7        29.96R WCI  27
6HR MIN TEMP:  31; 6HR MAX TEMP:  34;

MANISTEE       CLOUDY    37  19  48 E7        29.94S WCI  32
OSCODA         SUNNY     28  25  89 CALM      29.99R
PELLSTON       SUNNY     25  21  85 CALM      30.01R
6HR MIN TEMP:  17; 6HR MAX TEMP:  25;

ROGERS CITY    SUNNY     31  25  78 CALM      30.02R
TRAVERSE CITY  PTSUNNY   37  24  59 NE7       29.96S WCI  32
6HR MIN TEMP:  35; 6HR MAX TEMP:  37;

$$
MIZ007>008-015-251300-
EASTERN UPPER MICHIGAN

CITY           SKY/WX    TMP DP  RH WIND       PRES   REMARKS
KINROSS        SUNNY     28  25  86 NE5       30.02R WCI  23
6HR MIN TEMP:  21; 6HR MAX TEMP:  28;

MACKINAC ISLAN SUNNY     31  25  78 NE6       30.00S WCI  25
6HR MIN TEMP:  25; 6HR MAX TEMP:  31;

NEWBERRY       SUNNY     26  22  86 N5        30.01R WCI  20
S. S. MARIE    SUNNY     32  20  61 E6        30.02R WCI  26
6HR MIN TEMP:  24; 6HR MAX TEMP:  32;

MUNISING         N/A     29  20  69 CALM      30.03R
6HR MIN TEMP:  26; 6HR MAX TEMP:  33;

$$
MIZ004>006-011>014-085-251300-
CENTRAL UPPER MICHIGAN

CITY           SKY/WX    TMP DP  RH WIND       PRES   REMARKS
MANISTIQUE     SUNNY     28  21  73 N5        30.01S WCI  23
ESCANABA       MOSUNNY   34  19  55 NE7       30.00S WCI  28
6HR MIN TEMP:  30; 6HR MAX TEMP:  37;

MENOMINEE      CLOUDY    37  25  60 E12G17    29.98R WCI  30
6HR MIN TEMP:  36; 6HR MAX TEMP:  37;

SAWYER-GWINN   SUNNY     27  21  80 CALM      29.99S
$$
MIZ001>003-009>011-084-251300-
WESTERN UPPER MICHIGAN

CITY           SKY/WX    TMP DP  RH WIND       PRES   REMARKS
IRON MOUNTAIN  PTSUNNY   32  19  58 CALM      29.98R
6HR MIN TEMP:  32; 6HR MAX TEMP:  37;

HOUGHTON       PTSUNNY   31  25  78 E8        30.01R WCI  23
6HR MIN TEMP:  30; 6HR MAX TEMP:  31;

COPPER HARBOR    N/A     29  22  75 W3        30.05R
6HR MIN TEMP:  26; 6HR MAX TEMP:  30;

IRONWOOD       CLOUDY    37  27  65 E6        29.93S WCI  33
6HR MIN TEMP:  37; 6HR MAX TEMP:  39;

$$

ABBREVIATIONS USED IN REMARKS
   TC - TEMPERATURE IN CELSIUS
  WCI - WIND CHILL INDEX
   HX - HEAT INDEX
  VSB - VISIBILITY



USA.gov is the U.S. government's official web portal to all federal, state and local government web resources and services.